Weather History for Andalusia, AL

Change the Weather History Date:

Wednesday, November 7, 2012

  Actual Average (KCEW) Record (KCEW)
Temperature  
Mean Temperature 56 °F -  
Max Temperature 66 °F 71 °F 82 °F (1975)
Min Temperature 46 °F 43 °F 28 °F (2010)
Degree Days  
Heating Degree Days 9    
Growing Degree Days 6 (Base 50)    
Moisture  
Dew Point 39 °F    
Average Humidity 58    
Maximum Humidity 86    
Minimum Humidity 30    
Precipitation  
Precipitation 0.00 in - - ()
Sea Level Pressure  
Sea Level Pressure 30.00 in    
Wind  
Wind Speed 7 mph (NNW)    
Max Wind Speed 16 mph    
Max Gust Speed 20 mph    
Visibility 9 miles    
Events      
Averages and records for this station are not official NWS values.
T = Trace of Precipitation, MM = Missing Value Source: NWS Daily Summary

Daily Weather History Graph

Daily Weather History Graph

Search for Another Location

Airport:

Trip Planner

Search our weather history database for the weather conditions in past years. The results will help you decide how hot, cold, wet, or windy it might be!

Date:

Astronomy

Nov. 07, 2012 Rise Set
Actual Time 6:06 AM CST 4:51 PM CST
Civil Twilight 5:41 AM CST 5:16 PM CST
Nautical Twilight 5:12 AM CST 5:45 PM CST
Astronomical Twilight 4:43 AM CST 6:14 PM CST
Moon No Moon Rise 12:36 PM CST (11/7)
Length of Visible Light 11h 35m
Length of Day
10h 45m
Last Quarter, 43% of the Moon is Illuminated
Nov 7
Last Quarter
Nov 13
New
Nov 20
First Quarter
Nov 28
Full
Dec 6
Last Quarter

Hourly Weather History & Observations

Time (CST) Temp. Windchill Dew Point Humidity Pressure Visibility Wind Dir Wind Speed Gust Speed Precip Events Conditions
12:56 AM 53.1 °F - 46.0 °F 77% 29.98 in 10.0 mi NNW 4.6 mph - N/A   Overcast
1:56 AM 52.0 °F - 46.0 °F 80% 29.97 in 10.0 mi NNW 3.5 mph - N/A   Overcast
2:56 AM 50.0 °F - 45.0 °F 83% 29.97 in 10.0 mi NW 6.9 mph - N/A   Partly Cloudy
3:56 AM 50.0 °F - 44.1 °F 80% 29.98 in 9.0 mi WNW 4.6 mph - N/A   Clear
4:56 AM 48.0 °F - 44.1 °F 86% 29.98 in 7.0 mi West 3.5 mph - N/A   Clear
5:56 AM 46.9 °F - 43.0 °F 86% 29.99 in 6.0 mi West 3.5 mph - N/A   Clear
6:56 AM 48.0 °F - 43.0 °F 83% 30.01 in 4.0 mi NW 5.8 mph - N/A   Haze
7:56 AM 53.1 °F - 44.1 °F 71% 30.02 in 10.0 mi NW 9.2 mph - N/A   Clear
8:56 AM 55.9 °F - 43.0 °F 62% 30.02 in 10.0 mi North 8.1 mph - N/A   Clear
9:56 AM 59.0 °F - 42.1 °F 53% 30.01 in 10.0 mi NNW 8.1 mph - N/A   Partly Cloudy
10:56 AM 64.0 °F - 39.0 °F 40% 29.99 in 10.0 mi NNW 8.1 mph 19.6 mph N/A   Mostly Cloudy
11:56 AM 63.0 °F - 36.0 °F 37% 29.95 in 10.0 mi North 9.2 mph - N/A   Scattered Clouds
12:56 PM 66.0 °F - 34.0 °F 30% 29.93 in 10.0 mi NNW 12.7 mph 19.6 mph N/A   Scattered Clouds
1:56 PM 66.0 °F - 34.0 °F 30% 29.92 in 10.0 mi NNW 16.1 mph - N/A   Mostly Cloudy
2:56 PM 64.9 °F - 34.0 °F 32% 29.93 in 10.0 mi NW 11.5 mph - N/A   Partly Cloudy
3:56 PM 63.0 °F - 34.0 °F 34% 29.95 in 10.0 mi North 11.5 mph - N/A   Clear
4:56 PM 59.0 °F - 37.0 °F 44% 29.97 in 10.0 mi NNW 4.6 mph - N/A   Overcast
5:56 PM 59.0 °F - 37.9 °F 46% 30.00 in 10.0 mi NW 4.6 mph - N/A   Overcast
6:56 PM 59.0 °F - 37.9 °F 46% 30.03 in 10.0 mi NNE 9.2 mph - N/A   Overcast
7:56 PM 55.9 °F - 36.0 °F 47% 30.06 in 10.0 mi NNE 6.9 mph - N/A   Mostly Cloudy
8:56 PM 53.1 °F - 35.1 °F 50% 30.09 in 10.0 mi North 8.1 mph - N/A   Partly Cloudy
9:56 PM 50.0 °F - 35.1 °F 57% 30.10 in 10.0 mi North 5.8 mph - N/A   Clear
10:56 PM 46.9 °F - 36.0 °F 66% 30.10 in 10.0 mi NNW 5.8 mph - N/A   Clear
11:56 PM 46.0 °F 43.9 °F 36.0 °F 68% 30.11 in 10.0 mi NNW 4.6 mph - N/A   Clear